Regional Weather Roundup
Issued by NWS

Home | Current Version | Previous Version | Text Only | Print | Product List | Glossary On
Versions: 1 2 3 4 5 6 7 8 9 10 11 12 13 14 15 16 17 18 19 20 21 22 23 24 25 26 27 28 29 30 31 32 33 34 35 36 37 38 39 40 41 42 43 44 45 46 47 48 49 50
000
ASUS46 KSEW 021710
RWRWA

WASHINGTON REGIONAL WEATHER ROUNDUP
NATIONAL WEATHER SERVICE SEATTLE WA
1000 AM PDT TUE SEP 02 2014

NOTE:"FAIR" INDICATES FEW OR NO CLOUDS BELOW 12,000 FEET WITH NO
SIGNIFICANT WEATHER AND/OR OBSTRUCTIONS TO VISIBILITY.

WAZ505-507>509-021800-
SEATTLE, TACOMA, EVERETT, AND VICINITY

CITY           SKY/WX    TMP DP  RH WIND       PRES   REMARKS
EVERETT        PTSUNNY   59  52  77 SE3       29.93F
BOEING FIELD   CLOUDY    64  53  67 NE3       29.92F
RENTON         CLOUDY    63  55  75 CALM      29.92S
SEATAC AIRPORT CLOUDY    61  55  81 SW5       29.94S
JBLM-MCCHORD   CLOUDY    59  55  88 N6        29.94S
PUYALLUP       NOT AVBL
JBLM-FT LEWIS  CLOUDY    59  56  89 S7        29.94S
TACOMA NARROWS CLOUDY    59  55  87 S7        29.94S FOG
$$

WAZ001-503-506-510-514-515-021800-
NORTH INTERIOR

CITY           SKY/WX    TMP DP  RH WIND       PRES   REMARKS
BELLINGHAM     CLOUDY    60  54  80 S6        29.88F
FRIDAY HARBOR  CLOUDY    60  52  74 SW10      29.89F
EASTSOUND      PTSUNNY   59  55  88 S6        29.86F
PORT ANGELES   PTSUNNY   59  50  72 W7        29.91S
NAS WHIDBEY    LGT RAIN  63  53  70 SW7       29.91F
BURLINGTON     CLOUDY    61  55  82 S8        29.92S
$$

WAZ020-022-039-040-504-511-512-021800-
SOUTHWEST INTERIOR

CITY           SKY/WX    TMP DP  RH WIND       PRES   REMARKS
SHELTON        CLOUDY    59  55  87 W6        29.92S
OLYMPIA        CLOUDY    61  54  77 S8        29.94F
CHEHALIS       PTSUNNY   64  55  72 S6        29.95F
KELSO          PTSUNNY   63  52  67 CALM      29.99F
VANCOUVER      SUNNY     65  53  65 NW8       29.96S
SCAPPOOSE, OR  MOSUNNY   66  51  58 NW5       29.95F
PORTLAND, OR   MOSUNNY   65  54  67 NW6       29.96S
$$

WAZ021-516-517-021800-
WASHINGTON COAST

CITY           SKY/WX    TMP DP  RH WIND       PRES   REMARKS
FORKS          LGT RAIN  57  56  96 S3        29.93F FOG
HOQUIAM        SUNNY     63  57  81 SW12      29.95F
ASTORIA, OR    PTSUNNY   63  55  75 N7        29.97S
$$

WAZ019-023-024-040-518-519-021800-
CASCADE MOUNTAINS AND COLUMBIA GORGE

CITY           SKY/WX    TMP DP  RH WIND       PRES   REMARKS
STAMPEDE PASS  CLOUDY    48  46  93 VRB6      29.95S
TROUTDALE, OR  MOSUNNY   66  54  65 CALM      29.95S
THE DALLES, OR SUNNY     72  53  51 NW17G23   29.85F
$$

WAZ026-027-041>044-520-521-021800-
EAST SLOPES

CITY           SKY/WX    TMP DP  RH WIND       PRES   REMARKS
OMAK           SUNNY     66  42  41 CALM      29.80F
WENATCHEE      SUNNY     71  43  36 W10       29.81F
ELLENSBURG     SUNNY     70  47  43 NW23      29.84F
YAKIMA         SUNNY     70  47  43 NE3       29.85F
$$

WAZ028-034-035-021800-
COLUMBIA BASIN

CITY           SKY/WX    TMP DP  RH WIND       PRES   REMARKS
EPHRATA        SUNNY     70  44  39 CALM      29.80F
MOSES LAKE     MOSUNNY   70  48  45 SW8       29.82F
PASCO          SUNNY     68  52  56 W5        29.84F
HERMISTON, OR  SUNNY     72  52  49 W13       29.85S
$$

WAZ036>038-021800-
NORTHEAST WASHINGTON

CITY           SKY/WX    TMP DP  RH WIND       PRES   REMARKS
SPOKANE GEIGER PTSUNNY   63  42  46 SW14      29.85S
SPOKANE FELTS  MOSUNNY   66  42  41 SW9       29.85F
FAIRCHILD AFB  SUNNY     63  42  46 S8        29.86S
COEURDALENE,ID MOSUNNY   66  45  45 SW8       29.84F
DEER PARK      SUNNY     62  42  47 S7        29.85F
$$

WAZ029>033-021800-
SOUTHEAST WASHINGTON

CITY           SKY/WX    TMP DP  RH WIND       PRES   REMARKS
PULLMAN        SUNNY     66  44  45 VRB6      29.89F
LEWISTON, ID   SUNNY     66  45  46 N5        29.85F
WALLA WALLA    SUNNY     72  48  42 SW17      29.87F
PENDLETON, OR  SUNNY     71  49  45 W13G21    29.86F
$$


USA.gov is the U.S. government's official web portal to all federal, state and local government web resources and services.